Flag for Paraguay Weather past 2 weeks in Asuncion, Paraguay

Now
75 °F

Passing clouds.


Feels Like: 77 °F
Forecast: 62 / 78 °F
Wind: N/A

Location: Asuncion / Aeropuerto

Current Time: Sep 20, 2014 at 10:45:29 AM

Latest Report: Sep 20, 2014 at 9:30 AM


Visibility: N/A

Pressure: 30.01 "Hg

Humidity: 61%

Dew point: 61 °F

Location of AsuncionLocation

Historic Weather in Asuncion — Graph

°F

Asuncion temperature yesterday

Maximum temperature yesterday: 72 °F (at 12:00 PM)
Minimum temperature yesterday: 64 °F (at 11:00 PM)
Average temperature yesterday: 69 °F

Past Weeks' High & Low Weather Summary

 TemperatureHumidityPressure
High95 °F (Sep 9, 2:00 PM)100% (Sep 7, 5:00 AM)30.15 "Hg (Sep 7, 5:00 AM)
Low36 °F (Sep 7, 7:30 AM)32% (Sep 13, 3:00 PM)29.59 "Hg (Sep 9, 4:00 PM)
Average73 °F72%29.89 "Hg
* Reported Sep 5 9:00 AM — Sep 20 9:00 AM, Asuncion, Weather by CustomWeather, © 2014

Note: Actual official high and low records may vary slightly from our data, if they occured in-between our weather recording intervals... More about our weather records

Advertising

Asuncion weather history for previous 24 hours

 ConditionsComfort  
Time TempWeatherWind HumidityBarometerVisibility
9:00 AM
Sep 20
73 °FSunny.9 mph69%30.01 "Hg10 mi
8:30 AM72 °FPassing clouds.9 mph73%30.01 "HgN/A
8:10 AM72 °FPassing clouds.10 mph73%30.01 "HgN/A
8:00 AM70 °FPassing clouds.12 mph83%30.01 "HgN/A
7:30 AM68 °FPassing clouds.8 mph88%30.01 "HgN/A
7:00 AM68 °FBroken clouds.7 mph94%29.98 "HgN/A
6:00 AM66 °FFog.7 mph94%29.95 "Hg3 mi
5:00 AM64 °FFog.6 mph100%29.92 "Hg2 mi
4:00 AM66 °FFog.7 mph100%29.89 "Hg1 mi
3:30 AM66 °FFog.No wind100%29.89 "Hg1 mi
3:00 AM66 °FFog.3 mph100%29.92 "Hg1 mi
2:00 AM66 °FFog.8 mph100%29.92 "Hg1 mi
1:15 AM66 °FFog.7 mph100%29.92 "Hg1 mi
1:00 AM66 °FFog.3 mph100%29.92 "Hg3 mi
12:00 AM66 °FPassing clouds.7 mph100%29.92 "Hg4 mi
11:15 PM
Sep 19
64 °FPassing clouds.5 mph100%29.89 "Hg4 mi
11:00 PM64 °FPassing clouds.No wind100%29.89 "Hg4 mi
10:00 PM66 °FPassing clouds.No wind94%29.89 "HgN/A
9:00 PM70 °FPassing clouds.3 mph94%29.89 "HgN/A
8:00 PM70 °FClear.6 mph94%29.86 "Hg10 mi
7:00 PM70 °FPassing clouds.6 mph94%29.83 "HgN/A
6:00 PM70 °FPassing clouds.6 mph94%29.80 "HgN/A
5:00 PM72 °FPartly cloudy.8 mph88%29.80 "HgN/A
4:00 PM72 °FPartly sunny.7 mph88%29.80 "HgN/A
3:00 PM72 °FOvercast.3 mph88%29.80 "HgN/A
2:00 PM72 °FPartly sunny.5 mph88%29.83 "HgN/A
1:00 PM70 °FThunderstorms. Mostly cloudy.5 mph94%29.86 "Hg2 mi
12:00 PM72 °FThunderstorms. Mostly cloudy.3 mph83%29.86 "HgN/A
11:00 AM70 °FMostly cloudy.5 mph88%29.86 "HgN/A
10:00 AM68 °FThunderstorms. Mostly cloudy.5 mph94%29.86 "Hg6 mi
Weather by CustomWeather, © 2014

See weather overviewHow to use our weather pages